Regional Weather Roundup
Issued by NWS

Home | Current Version | Previous Version | Graphics & Text | Print | Product List | Glossary On
Versions: 1 2 3 4 5 6 7 8 9 10 11 12 13 14 15 16 17 18 19 20 21 22 23 24 25 26 27 28 29 30 31 32 33 34 35 36 37 38 39 40 41 42 43 44 45 46 47 48 49 50
742
ASUS45 KABQ 202010
RWRNM
NEW MEXICO REGIONAL WEATHER ROUNDUP
NATIONAL WEATHER SERVICE ALBUQUERQUE NM
200 PM MDT FRI APR 20 2018

NOTE: "FAIR" MEANS FEW OR NO CLOUDS BELOW 12,000 FEET AGL WITH NO
       SIGNIFICANT WEATHER OR OBSTRUCTIONS TO VISION.

      THIS PRODUCT IS RELEASED AS TWO VERSIONS.  ONE VERSION NEAR
      THE TOP OF THE HOUR CONTAINING PRELIMINARY DATA FROM ALBUQUERQUE
      AND OTHER STATIONS.  A FINAL VERSION WITH ADDITIONAL DATA IS
      ISSUED ABOUT 10 MINUTES AFTER THE HOUR.

NMZ501-503-504-510>518-202100-
NORTHWEST PLATEAU/NORTHCENTRAL MOUNTAINS

CITY           SKY/WX    TMP DP  RH WIND       PRES   REMARKS
FARMINGTON     FAIR      54  12  18 SW13G20   29.92S
LOS ALAMOS     FAIR      51   0  12 SE3G22    29.95F
SANTA FE       FAIR      58  -4   8 W21G40    29.92S
TAOS           PTSUNNY   42  29  59 W13       30.00R
ANGEL FIRE     CLOUDY    36  25  65 SW15G28   29.97S WCI  26

$$
NMZ402-403-502-505>509-202100-
WESTCENTRAL MOUNTAINS/SOUTHWEST MOUNTAINS

CITY           SKY/WX    TMP DP  RH WIND       PRES   REMARKS
GALLUP         FAIR      50  15  24 SW16G37   29.97R
GRANTS         FAIR      54   7  15 SW17G29   29.96F
SILVER CITY    FAIR      59   9  13 W23G30    30.02S

$$
NMZ407-409-411-412-202100-
SOUTHERN DESERTS

CITY           SKY/WX    TMP DP  RH WIND       PRES   REMARKS
DEMING         FAIR      68  14  12 W25G36    29.97F
LAS CRUCES     FAIR      69  11  10 W33G41    29.97F
ALAMOGORDO     FAIR      72   9   8 SW26G37   29.93R
T OR C         FAIR      67 -14   3 W26G43    29.91S

$$
NMZ519>523-202100-
CENTRAL VALLEYS/CENTRAL HIGHLANDS

CITY           SKY/WX    TMP DP  RH WIND       PRES   REMARKS
ALBUQUERQUE    PTSUNNY   60   2   9 W20G30    29.92S
DOUBLE EAGLE     N/A     57   5  12 W17G29    29.94F
MORIARTY ARPT  FAIR      58   6  12 SW16G25   29.92F
CLINES CORNERS FAIR      55  13  18 W28G44    29.92F
BELEN          FAIR      62   0   8 W6G28     29.93S
SOCORRO        FAIR      65  -4   6 SW5       29.89F

$$
NMZ524>526-539-540-202100-
SOUTHCENTRAL MOUNTAINS

CITY           SKY/WX    TMP DP  RH WIND       PRES   REMARKS
RUIDOSO        FAIR      61   5  11 SW38G58   29.93

$$
NMZ527>531-202100-
NORTHEAST HIGHLANDS/NORTHEAST PLAINS

CITY           SKY/WX    TMP DP  RH WIND       PRES   REMARKS
LAS VEGAS      FAIR      41  37  86 W6        29.91F
RATON          LGT RAIN  37  35  92 S13       29.94R WCI  29
CLAYTON        CLOUDY    47  33  58 SE18      29.94F

$$
NMZ532>537-202100-
EASTCENTRAL PLAINS

CITY           SKY/WX    TMP DP  RH WIND       PRES   REMARKS
SANTA ROSA     FAIR      68  38  33 S21G26    29.80F
TUCUMCARI      CLOUDY    68  39  34 S29G35    29.80F HAZE
CANNON AFB     MOSUNNY   70  40  33 SE37G48   29.84F BLWGDUST
CLOVIS AIRPORT CLOUDY    68  40  35 S32G46    29.87F HAZE

$$
NMZ028-029-538-202100-
SOUTHEAST PLAINS

CITY           SKY/WX    TMP DP  RH WIND       PRES   REMARKS
ROSWELL        FAIR      80  46  30 S25G38    29.76F
ARTESIA        FAIR      81  48  32 S33G41    29.77F
CARLSBAD       PTSUNNY   82  48  30 SE20G29   29.76F
HOBBS          SUNNY     77  45  31 SE36G41   29.85F


$$




USA.gov is the U.S. government's official web portal to all federal, state and local government web resources and services.